Moose, WY

6:08 PM MST on February 24, 2017 (GMT -0700)
Jackson Hole

Weather History for KJAC - February, 2013

Change the Weather History Date:

Thursday, February 28, 2013

  Actual Average Record
Temperature  
Mean Temperature 10 °F -  
Max Temperature 24 °F 34 °F 52 °F (1986)
Min Temperature -4 °F 6 °F -21 °F (1993)
Degree Days  
Heating Degree Days 55    
Moisture  
Dew Point 8 °F    
Average Humidity 93    
Maximum Humidity 100    
Minimum Humidity 85    
Precipitation  
Precipitation 0.00 in - - ()
Sea Level Pressure  
Sea Level Pressure 30.33 in    
Wind  
Wind Speed 6 mph (NNE)    
Max Wind Speed 16 mph    
Max Gust Speed -    
Visibility 7 miles    
Events Snow    
Averages and records for this station are not official NWS values.
T = Trace of Precipitation, MM = Missing Value Source: NWS Daily Summary

Daily Weather History Graph

Daily Weather History Graph

Search for Another Location

Airport or City:

Trip Planner

Search our weather history database for the weather conditions in past years. The results will help you decide how hot, cold, wet, or windy it might be!

Date:

Astronomy

Feb. 28, 2013 Rise Set
Actual Time 7:00 AM MST 6:10 PM MST
Civil Twilight 6:31 AM MST 6:39 PM MST
Nautical Twilight 5:58 AM MST 7:12 PM MST
Astronomical Twilight 5:25 AM MST 7:46 PM MST
Moon 9:50 PM MST (2/28) 8:04 AM MST (2/28)
Length of Visible Light 12h 07m
Length of Day
11h 10m
Waning Gibbous, 90% of the Moon is Illuminated
Feb 28
Waning Gibbous
Mar 4
Last Quarter
Mar 11
New
Mar 19
First Quarter
Mar 27
Full

Hourly Weather History & Observations

Time (MST) Temp. Windchill Dew Point Humidity Pressure Visibility Wind Dir Wind Speed Gust Speed Precip Events Conditions
12:15 AM 1.4 °F -9.9 °F -0.4 °F 92% 30.30 in 10.0 mi NE 5.8 mph - N/A   Clear
12:35 AM 1.4 °F -11.3 °F 1.4 °F 100% 30.29 in 10.0 mi North 6.9 mph - N/A   Clear
12:55 AM -0.4 °F -15.7 °F -2.2 °F 92% 30.29 in 10.0 mi North 9.2 mph - N/A   Clear
1:15 AM -2.2 °F -19.9 °F -4.0 °F 92% 30.30 in 10.0 mi North 11.5 mph - N/A   Clear
1:35 AM -4.0 °F -21.2 °F -5.8 °F 92% 30.30 in 10.0 mi North 10.4 mph - N/A   Clear
1:55 AM -2.2 °F -18.9 °F -4.0 °F 92% 30.30 in 10.0 mi North 10.4 mph - N/A   Clear
2:15 AM -2.2 °F -18.0 °F -4.0 °F 92% 30.30 in 10.0 mi North 9.2 mph - N/A   Clear
2:36 AM -0.4 °F -14.7 °F -2.2 °F 92% 30.30 in 10.0 mi North 8.1 mph - N/A   Clear
2:55 AM -2.2 °F -15.6 °F -2.2 °F 100% 30.30 in 10.0 mi North 6.9 mph - N/A   Clear
3:15 AM -2.2 °F -14.2 °F -4.0 °F 92% 30.30 in 10.0 mi NE 5.8 mph - N/A   Clear
3:35 AM -4.0 °F -17.8 °F -5.8 °F 92% 30.30 in 10.0 mi North 6.9 mph - N/A   Clear
3:55 AM -2.2 °F -19.9 °F -4.0 °F 92% 30.30 in 10.0 mi North 11.5 mph - N/A   Scattered Clouds
4:15 AM -0.4 °F -20.5 °F -2.2 °F 92% 30.31 in 10.0 mi North 16.1 mph - N/A   Overcast
4:35 AM 1.4 °F -15.3 °F -0.4 °F 92% 30.32 in 7.0 mi North 11.5 mph - N/A   Overcast
5:15 AM 3.2 °F -4.2 °F 1.4 °F 92% 30.30 in 5.0 mi North 3.5 mph - N/A   Overcast
5:35 AM 3.2 °F -6.2 °F 1.4 °F 92% 30.31 in 8.0 mi North 4.6 mph - N/A   Overcast
5:55 AM 3.2 °F -9.1 °F 1.4 °F 92% 30.32 in 9.0 mi North 6.9 mph - N/A   Overcast
6:35 AM 3.2 °F -6.2 °F 1.4 °F 92% 30.33 in 10.0 mi North 4.6 mph - N/A   Overcast
6:55 AM 5.0 °F - 3.2 °F 92% 30.33 in 10.0 mi Calm Calm - N/A Snow Snow
7:54 AM 6.8 °F - 3.2 °F 85% 30.34 in 3.0 mi Calm Calm - N/A Snow Light Snow
8:55 AM 8.6 °F - 5.0 °F 85% 30.34 in 2.0 mi Calm Calm - N/A Snow Light Snow
9:53 AM 8.6 °F - 6.8 °F 92% 30.34 in 2.0 mi Calm Calm - N/A Snow Light Snow
11:00 AM 10.4 °F - 8.6 °F 92% 30.34 in 2.0 mi Calm Calm - N/A Snow Light Snow
11:52 AM 14.0 °F - 10.4 °F 86% 30.34 in 2.0 mi Calm Calm - N/A Snow Light Snow
12:57 PM 15.8 °F - 14.0 °F 93% 30.33 in 2.0 mi Calm Calm - N/A Snow Light Snow
1:56 PM 19.4 °F - 15.8 °F 86% 30.31 in 4.0 mi Calm Calm - N/A Snow Light Snow
2:51 PM 23.0 °F - 19.4 °F 86% 30.33 in 3.0 mi Calm Calm - N/A Snow Light Snow
3:54 PM 23.0 °F - 21.2 °F 93% 30.33 in 6.0 mi Calm Calm - N/A Snow Light Snow
4:52 PM 24.8 °F - 21.2 °F 86% 30.33 in 7.0 mi Calm Calm - N/A   Overcast
5:55 PM 23.0 °F 18.4 °F 21.2 °F 93% 30.35 in 3.0 mi North 3.5 mph - N/A Snow Light Snow
6:56 PM 21.2 °F 12.6 °F 21.2 °F 100% 30.36 in 7.0 mi North 6.9 mph - N/A Snow Light Snow
8:51 PM 21.2 °F 13.6 °F 19.4 °F 93% 30.37 in 6.0 mi NE 5.8 mph - N/A Snow Light Snow
8:55 PM 21.2 °F 14.9 °F 19.4 °F 93% 30.37 in 6.0 mi NE 4.6 mph - N/A   Mostly Cloudy
9:15 PM 19.4 °F 9.5 °F 17.6 °F 93% 30.37 in 10.0 mi North 8.1 mph - N/A   Overcast
9:35 PM 21.2 °F 13.6 °F 21.2 °F 100% 30.37 in 10.0 mi NNE 5.8 mph - N/A   Overcast
10:15 PM 19.4 °F - 17.6 °F 93% 30.38 in 9.0 mi Calm Calm - N/A   Mostly Cloudy
10:35 PM 19.4 °F - 19.4 °F 100% 30.38 in 8.0 mi Calm Calm - N/A   Mostly Cloudy
10:55 PM 19.4 °F 9.5 °F 19.4 °F 100% 30.38 in 10.0 mi North 8.1 mph - N/A   Overcast
11:15 PM 21.2 °F 13.6 °F 19.4 °F 93% 30.39 in 7.0 mi North 5.8 mph - N/A   Overcast
11:35 PM 21.2 °F 16.4 °F 21.2 °F 100% 30.38 in 8.0 mi NE 3.5 mph - N/A   Overcast
11:55 PM 19.4 °F 12.8 °F 19.4 °F 100% 30.38 in 8.0 mi ENE 4.6 mph - N/A   Overcast